Aurora, CO

2:28 AM MDT on April 23, 2018 (GMT -0600)
Buckley Air Force Base

Weather History for KBKF - November, 2013

Change the Weather History Date:

Friday, November 29, 2013

  Actual Average Record
Temperature  
Mean Temperature 46 °F -  
Max Temperature 60 °F 46 °F 68 °F (2003)
Min Temperature 32 °F 23 °F 5 °F (2004)
Degree Days  
Heating Degree Days 19    
Moisture  
Dew Point 19 °F    
Average Humidity 42    
Maximum Humidity 69    
Minimum Humidity 17    
Precipitation  
Precipitation 0.00 in - - ()
Sea Level Pressure  
Sea Level Pressure 30.10 in    
Wind  
Wind Speed 7 mph (SSW)    
Max Wind Speed 12 mph    
Max Gust Speed -    
Visibility 10 miles    
Events      
Averages and records for this station are not official NWS values.
T = Trace of Precipitation, MM = Missing Value Source: NWS Daily Summary

Daily Weather History Graph

Daily Weather History Graph

Search for Another Location

Airport or City:

Astronomy

Nov. 29, 2013 Rise Set
Actual Time 6:59 AM MST 4:35 PM MST
Civil Twilight 6:29 AM MST 5:05 PM MST
Nautical Twilight 5:55 AM MST 5:38 PM MST
Astronomical Twilight 5:23 AM MST 6:11 PM MST
Moon 3:07 AM MST (11/29) 2:21 PM MST (11/29)
Length of Visible Light 10h 36m
Length of Day
9h 36m
Waning Crescent, 13% of the Moon is Illuminated
Nov 29
Waning Crescent
Dec 2
New
Dec 9
First Quarter
Dec 17
Full
Dec 25
Last Quarter

Hourly Weather History & Observations

Time (MST) Temp. Windchill Dew Point Humidity Pressure Visibility Wind Dir Wind Speed Gust Speed Precip Events Conditions
12:55 AM 32.0 °F 24.8 °F 23.0 °F 69% 30.09 in 10.0 mi South 8.1 mph - N/A   Mostly Cloudy
1:55 AM 32.0 °F 24.8 °F 23.0 °F 69% 30.09 in 10.0 mi South 8.1 mph - N/A   Mostly Cloudy
2:55 AM 32.0 °F 24.2 °F 23.0 °F 69% 30.08 in 10.0 mi SSW 9.2 mph - N/A   Scattered Clouds
3:55 AM 35.6 °F 31.7 °F 17.6 °F 48% 30.06 in 10.0 mi South 4.6 mph - N/A   Scattered Clouds
4:55 AM 33.8 °F 29.6 °F 17.6 °F 52% 30.09 in 10.0 mi SW 4.6 mph - N/A   Scattered Clouds
5:55 AM 35.6 °F 29.2 °F 17.6 °F 48% 30.10 in 10.0 mi SSW 8.1 mph - N/A   Scattered Clouds
6:55 AM 35.6 °F 28.6 °F 15.8 °F 44% 30.13 in 70.0 mi South 9.2 mph - N/A   Scattered Clouds
7:55 AM 37.4 °F 31.4 °F 17.6 °F 45% 30.14 in 70.0 mi South 8.1 mph - N/A   Scattered Clouds
8:55 AM 44.6 °F 39.7 °F 17.6 °F 34% 30.12 in 70.0 mi SSW 9.2 mph - N/A   Scattered Clouds
9:55 AM 50.0 °F - 17.6 °F 28% 30.12 in 70.0 mi SW 8.1 mph - N/A   Scattered Clouds
10:55 AM 55.4 °F - 15.8 °F 21% 30.08 in 70.0 mi West 3.5 mph - N/A   Scattered Clouds
11:55 AM 57.2 °F - 15.8 °F 20% 30.05 in 70.0 mi SW 1.2 mph - N/A   Scattered Clouds
12:55 PM 59.0 °F - 15.8 °F 19% 30.03 in 70.0 mi WNW 6.9 mph - N/A   Scattered Clouds
1:55 PM 60.8 °F - 15.8 °F 17% 30.02 in 70.0 mi NW 6.9 mph - N/A   Scattered Clouds
2:55 PM 60.8 °F - 17.6 °F 19% 30.03 in 70.0 mi NNW 3.5 mph - N/A   Partly Cloudy
3:55 PM 57.2 °F - 21.2 °F 25% 30.05 in 70.0 mi NNE 4.6 mph - N/A   Partly Cloudy
4:55 PM 48.2 °F - 21.2 °F 34% 30.10 in 70.0 mi East 6.9 mph - N/A   Partly Cloudy
5:55 PM 42.8 °F 37.0 °F 21.2 °F 42% 30.13 in 25.0 mi SE 10.4 mph - N/A   Clear
6:55 PM 44.6 °F - 19.4 °F 37% 30.16 in 25.0 mi Calm Calm - N/A   Clear
7:55 PM 41.0 °F 37.1 °F 21.2 °F 45% 30.17 in 25.0 mi SSW 5.8 mph - N/A   Clear
8:55 PM 37.4 °F 30.8 °F 21.2 °F 52% 30.16 in 25.0 mi South 9.2 mph - N/A   Clear
9:55 PM 37.4 °F 32.1 °F 21.2 °F 52% 30.13 in 25.0 mi South 6.9 mph - N/A   Clear
10:55 PM 35.6 °F 28.0 °F 21.2 °F 56% 30.11 in 10.0 mi South 10.4 mph - N/A   Clear
11:55 PM 33.8 °F 25.3 °F 19.4 °F 56% 30.10 in 10.0 mi SSW 11.5 mph - N/A   Clear